Weather History for Newport News, VA

Change the Weather History Date:

Tuesday, August 19, 2014

  Actual Average Record
Temperature  
Mean Temperature 80 °F -  
Max Temperature 86 °F 87 °F 97 °F (1954)
Min Temperature 75 °F 70 °F 61 °F (1977)
Cooling Degree Days 14    
Growing Degree Days 30 (Base 50)    
Moisture  
Dew Point 73 °F    
Average Humidity 82    
Maximum Humidity 88    
Minimum Humidity 67    
Precipitation  
Precipitation 0.41 in - - ()
Sea Level Pressure  
Sea Level Pressure 29.81 in    
Wind  
Wind Speed 3 mph (NE)    
Max Wind Speed 10 mph    
Max Gust Speed -    
Visibility 6 miles    
Events Rain    
Averages and records for this station are not official NWS values.
T = Trace of Precipitation, MM = Missing Value Source: NWS Daily Summary

Daily Weather History Graph

Daily Weather History Graph

Search for Another Location

Airport:

Trip Planner

Search our weather history database for the weather conditions in past years. The results will help you decide how hot, cold, wet, or windy it might be!

Date:

Astronomy

Aug. 19, 2014 Rise Set
Actual Time 6:25 AM EDT 7:52 PM EDT
Civil Twilight 5:58 AM EDT 8:19 PM EDT
Nautical Twilight 5:25 AM EDT 8:52 PM EDT
Astronomical Twilight 4:51 AM EDT 9:27 PM EDT
Moon 1:18 AM EDT (8/19) 3:44 PM EDT (8/19)
Length of Visible Light 14h 21m
Length of Day
13h 26m
Waning Crescent, 29% of the Moon is Illuminated
Aug 19
Waning Crescent
Aug 25
New
Sep 2
First Quarter
Sep 8
Full
Sep 15
Last Quarter

Hourly Weather History & Observations

Time (EDT) Temp. Heat Index Dew Point Humidity Pressure Visibility Wind Dir Wind Speed Gust Speed Precip Events Conditions
12:54 AM 77.0 °F - 72.0 °F 84% 29.82 in 4.0 mi ENE 3.5 mph - 0.02 in Rain Light Rain
1:12 AM 77.0 °F - 72.0 °F 84% 29.82 in 6.0 mi Calm Calm - 0.00 in   Haze
1:21 AM 77.0 °F - 72.0 °F 84% 29.81 in 4.0 mi East 3.5 mph - 0.00 in Rain Light Rain
1:32 AM 77.0 °F - 72.0 °F 84% 29.81 in 5.0 mi East 3.5 mph - 0.01 in Rain Light Rain
1:45 AM 77.0 °F - 72.0 °F 84% 29.80 in 6.0 mi Calm Calm - 0.01 in Rain Light Rain
1:54 AM 77.0 °F - 72.0 °F 84% 29.79 in 8.0 mi East 3.5 mph - 0.01 in Rain Light Rain
2:07 AM 77.0 °F - 72.0 °F 84% 29.79 in 5.0 mi ENE 3.5 mph - 0.00 in Rain Light Rain
2:42 AM 75.9 °F - 72.0 °F 87% 29.78 in 6.0 mi Calm Calm - 0.00 in   Overcast
2:54 AM 75.9 °F - 72.0 °F 87% 29.77 in 6.0 mi NE 3.5 mph - 0.00 in   Overcast
3:54 AM 77.0 °F - 72.0 °F 84% 29.77 in 7.0 mi Calm Calm - N/A   Overcast
4:14 AM 77.0 °F - 72.0 °F 84% 29.76 in 2.5 mi Calm Calm - 0.01 in Rain Light Rain
4:23 AM 77.0 °F - 72.0 °F 84% 29.76 in 1.5 mi North 3.5 mph - 0.06 in Rain Heavy Rain
4:41 AM 77.0 °F - 72.0 °F 84% 29.76 in 2.0 mi NE 3.5 mph - 0.11 in Rain Rain
4:54 AM 77.0 °F - 72.0 °F 84% 29.76 in 2.0 mi ENE 3.5 mph - 0.13 in Rain Light Rain
5:01 AM 77.0 °F - 72.0 °F 84% 29.76 in 2.5 mi East 3.5 mph - 0.01 in Rain Light Rain
5:05 AM 75.9 °F - 72.0 °F 87% 29.76 in 3.0 mi Calm Calm - 0.01 in Rain Light Rain
5:14 AM 77.0 °F - 72.0 °F 84% 29.76 in 3.0 mi Calm Calm - 0.01 in Rain Light Rain
5:34 AM 75.9 °F - 72.0 °F 87% 29.77 in 5.0 mi ENE 4.6 mph - 0.01 in Rain Light Rain
5:45 AM 77.0 °F - 72.0 °F 84% 29.77 in 4.0 mi ENE 3.5 mph - 0.02 in Rain Light Rain
5:54 AM 75.9 °F - 72.0 °F 87% 29.77 in 5.0 mi Calm Calm - 0.02 in Rain Light Rain
6:20 AM 77.0 °F - 72.0 °F 84% 29.77 in 4.0 mi Calm Calm - 0.00 in Rain Light Rain
6:40 AM 77.0 °F - 72.0 °F 84% 29.78 in 4.0 mi Calm Calm - 0.00 in Rain Light Rain
6:49 AM 77.0 °F - 71.6 °F 83% 29.79 in 2.5 mi Calm Calm - 0.00 in Rain Light Rain
6:54 AM 77.0 °F - 72.0 °F 84% 29.79 in 2.5 mi Calm Calm - 0.00 in   Haze
7:19 AM 77.0 °F - 72.0 °F 84% 29.79 in 5.0 mi Calm Calm - 0.00 in   Haze
7:27 AM 77.0 °F - 72.0 °F 84% 29.79 in 6.0 mi Calm Calm - 0.00 in   Haze
7:54 AM 78.1 °F - 73.0 °F 84% 29.80 in 5.0 mi Calm Calm - 0.00 in   Haze
8:01 AM 78.1 °F - 73.0 °F 84% 29.80 in 5.0 mi Calm Calm - N/A   Haze
8:32 AM 77.0 °F - 72.0 °F 84% 29.80 in 2.0 mi ESE 3.5 mph - 0.02 in Rain Light Rain
8:40 AM 77.0 °F - 73.0 °F 88% 29.80 in 3.0 mi East 3.5 mph - 0.03 in Rain Rain
8:47 AM 77.0 °F - 73.0 °F 88% 29.80 in 1.8 mi East 3.5 mph - 0.05 in Rain Heavy Rain
8:54 AM 77.0 °F - 72.0 °F 84% 29.80 in 1.2 mi East 4.6 mph - 0.07 in Rain Heavy Rain
9:04 AM 77.0 °F - 73.0 °F 88% 29.80 in 1.8 mi Calm Calm - 0.01 in Rain Light Rain
9:13 AM 78.1 °F - 73.0 °F 84% 29.80 in 2.5 mi Calm Calm - 0.01 in Rain Light Rain
9:28 AM 78.1 °F - 73.0 °F 84% 29.81 in 3.0 mi Calm Calm - 0.02 in Rain Light Rain
9:54 AM 78.1 °F - 73.0 °F 84% 29.82 in 2.5 mi NNW 3.5 mph - 0.02 in Rain Light Rain
9:58 AM 78.1 °F - 73.0 °F 84% 29.82 in 1.8 mi North 3.5 mph - 0.01 in Rain Light Rain
10:05 AM 78.1 °F - 73.0 °F 84% 29.82 in 1.2 mi Variable 3.5 mph - 0.04 in Rain Heavy Rain
10:54 AM 79.0 °F - 73.9 °F 84% 29.83 in 10.0 mi ENE 8.1 mph - 0.06 in Rain Light Rain
11:02 AM 80.1 °F 84.2 °F 73.0 °F 79% 29.83 in 10.0 mi NE 6.9 mph - 0.00 in   Overcast
11:54 AM 81.0 °F 85.8 °F 73.0 °F 77% 29.82 in 10.0 mi East 8.1 mph - 0.00 in   Overcast
12:01 PM 82.0 °F 87.9 °F 73.9 °F 76% 29.82 in 10.0 mi ENE 8.1 mph - N/A   Overcast
12:17 PM 82.0 °F 87.9 °F 73.9 °F 76% 29.82 in 10.0 mi ENE 9.2 mph - N/A   Overcast
12:54 PM 82.9 °F 88.8 °F 73.0 °F 72% 29.83 in 10.0 mi East 5.8 mph - N/A   Overcast
1:49 PM 84.2 °F 90.9 °F 73.4 °F 70% 29.83 in 10.0 mi NE 5.8 mph - N/A   Overcast
1:54 PM 84.9 °F 91.4 °F 73.0 °F 67% 29.83 in 10.0 mi NNE 6.9 mph - N/A   Overcast
2:39 PM 82.9 °F 88.0 °F 72.0 °F 69% 29.82 in 10.0 mi NNE 8.1 mph - N/A   Overcast
2:54 PM 82.0 °F 87.9 °F 73.9 °F 76% 29.82 in 8.0 mi North 8.1 mph - 0.00 in Rain Light Rain
3:19 PM 80.1 °F 84.2 °F 73.0 °F 79% 29.83 in 10.0 mi North 10.4 mph - 0.00 in Rain Light Rain
3:34 PM 79.0 °F - 73.9 °F 84% 29.83 in 2.0 mi NNE 9.2 mph - 0.02 in Rain Light Rain
3:54 PM 78.1 °F - 73.0 °F 84% 29.83 in 2.0 mi NE 10.4 mph - 0.06 in Rain Rain
4:04 PM 79.0 °F - 73.0 °F 82% 29.83 in 4.0 mi NE 8.1 mph - 0.01 in Rain Light Rain
4:54 PM 79.0 °F - 73.0 °F 82% 29.83 in 8.0 mi NE 4.6 mph - 0.01 in   Overcast
5:16 PM 80.1 °F 84.5 °F 73.9 °F 81% 29.83 in 10.0 mi NNE 3.5 mph - 0.00 in Rain Light Rain
5:47 PM 81.0 °F 86.2 °F 73.9 °F 79% 29.84 in 10.0 mi NE 5.8 mph - 0.00 in   Overcast
5:54 PM 81.0 °F 86.2 °F 73.9 °F 79% 29.83 in 10.0 mi NE 8.1 mph - 0.00 in   Overcast
6:20 PM 81.0 °F 86.2 °F 73.9 °F 79% 29.84 in 10.0 mi NE 5.8 mph - N/A   Mostly Cloudy
6:27 PM 80.6 °F 85.4 °F 73.4 °F 79% 29.84 in 10.0 mi NE 9.2 mph - N/A   Mostly Cloudy
6:34 PM 80.1 °F 84.5 °F 73.9 °F 81% 29.84 in 10.0 mi NE 6.9 mph - N/A   Overcast
6:54 PM 80.1 °F 84.5 °F 73.9 °F 81% 29.84 in 10.0 mi NE 9.2 mph - N/A   Overcast
7:39 PM 79.0 °F - 73.0 °F 82% 29.85 in 10.0 mi NE 8.1 mph - N/A   Overcast
7:51 PM 78.8 °F - 73.4 °F 83% 29.85 in 4.0 mi ENE 10.4 mph - 0.01 in Rain Light Rain
7:54 PM 79.0 °F - 73.0 °F 82% 29.85 in 5.0 mi ENE 9.2 mph - 0.01 in Rain Light Rain
8:03 PM 79.0 °F - 73.0 °F 82% 29.85 in 10.0 mi ENE 9.2 mph - 0.00 in   Mostly Cloudy
8:54 PM 78.1 °F - 71.1 °F 79% 29.85 in 10.0 mi ENE 9.2 mph - 0.00 in   Clear
9:34 PM 78.1 °F - 71.1 °F 79% 29.88 in 10.0 mi NE 5.8 mph - N/A   Mostly Cloudy
9:54 PM 78.1 °F - 71.1 °F 79% 29.89 in 10.0 mi NE 5.8 mph - N/A   Mostly Cloudy
10:54 PM 78.1 °F - 71.1 °F 79% 29.90 in 10.0 mi NNE 4.6 mph - N/A   Overcast
11:54 PM 78.1 °F - 71.1 °F 79% 29.91 in 10.0 mi NNE 4.6 mph - N/A   Overcast